Station Historical Data
Daily Summary for February 15, 2017 Units:  Metric    English   Both
« Previous Day
Next Day »
Daily Weekly Monthly Yearly Custom
  High: Low: Average:
Temperature: 2.4 °C -4.8 °C -0.6 °C
Dew Point: 0.5 °C -7.2 °C -2.8 °C
Humidity: 92% 74% 85%
Wind Speed: 25.7km/h 0km/h 8.2km/h
Wind Gust: 33.8km/h - -
Wind- - West
Pressure: 1005 hPa 998.2 hPa -
Precipitation: 0 mm    
Historical Graphs
 
 
Tabular Data for February 15, 2017
Time Temperature Dew Point Pressure Wind Wind Speed Wind Gust Humidity Rainfall Rate (Hourly)
00:04 2.4 °C 0.5 °C 999.9 hPa SW 4.8 km/h 8 km/h 87% 0 mm
00:09 2.4 °C 0.4 °C 999.9 hPa SW 3.2 km/h 6.4 km/h 87% 0 mm
00:14 2.4 °C 0.4 °C 999.9 hPa WSW 3.2 km/h 6.4 km/h 87% 0 mm
00:19 2.3 °C 0.3 °C 999.9 hPa Calm   3.2 km/h 87% 0 mm
00:24 2.2 °C 0.2 °C 999.9 hPa SSW 1.6 km/h 6.4 km/h 87% 0 mm
00:29 2.2 °C 0.3 °C 999.5 hPa SW 6.4 km/h 8 km/h 87% 0 mm
00:34 2.3 °C 0.3 °C 999.5 hPa SW 4.8 km/h 8 km/h 87% 0 mm
00:39 2.3 °C 0.2 °C 999.2 hPa SSW 4.8 km/h 8 km/h 86% 0 mm
00:44 2.2 °C 0.1 °C 998.9 hPa SSW 4.8 km/h 8 km/h 86% 0 mm
00:49 2.2 °C 0.1 °C 998.9 hPa SSW 4.8 km/h 8 km/h 86% 0 mm
00:54 2.1 °C -0.1 °C 998.9 hPa South 4.8 km/h 8 km/h 86% 0 mm
00:59 1.9 °C -0.2 °C 999.2 hPa SW 4.8 km/h 8 km/h 86% 0 mm
01:04 2 °C 0.1 °C 999.5 hPa WSW 8 km/h 12.9 km/h 87% 0 mm
01:09 2 °C -0.1 °C 999.5 hPa SW 4.8 km/h 14.5 km/h 86% 0 mm
01:14 1.9 °C -0.2 °C 999.5 hPa SW 6.4 km/h 11.3 km/h 86% 0 mm
01:19 1.9 °C -0.2 °C 999.2 hPa SSE 3.2 km/h 11.3 km/h 86% 0 mm
01:24 1.9 °C -0.2 °C 999.2 hPa SSW 3.2 km/h 12.9 km/h 86% 0 mm
01:29 1.9 °C -0.1 °C 999.2 hPa SW 8 km/h 14.5 km/h 87% 0 mm
01:34 1.9 °C 0 °C 999.2 hPa SW 4.8 km/h 12.9 km/h 87% 0 mm
01:39 2 °C 0.1 °C 999.2 hPa SW 6.4 km/h 14.5 km/h 87% 0 mm
01:44 2.1 °C 0.1 °C 999.2 hPa SW 6.4 km/h 14.5 km/h 87% 0 mm
01:49 2.1 °C 0.1 °C 999.2 hPa SW 8 km/h 9.7 km/h 87% 0 mm
01:54 2.1 °C 0.1 °C 999.2 hPa SW 4.8 km/h 11.3 km/h 87% 0 mm
01:59 2.1 °C 0.2 °C 999.2 hPa SW 6.4 km/h 11.3 km/h 87% 0 mm
02:04 2.1 °C 0.2 °C 999.2 hPa WSW 9.7 km/h 11.3 km/h 87% 0 mm
02:09 2.1 °C 0.2 °C 999.2 hPa SW 6.4 km/h 14.5 km/h 87% 0 mm
02:14 2.1 °C 0.2 °C 999.2 hPa SSW 11.3 km/h 12.9 km/h 87% 0 mm
02:19 2.2 °C 0.2 °C 999.2 hPa SW 4.8 km/h 16.1 km/h 87% 0 mm
02:24 2.1 °C 0.2 °C 998.9 hPa SSW 6.4 km/h 14.5 km/h 87% 0 mm
02:29 2.1 °C 0.2 °C 999.2 hPa SW 6.4 km/h 14.5 km/h 87% 0 mm
02:34 2.1 °C 0.2 °C 998.9 hPa WSW 1.6 km/h 8 km/h 87% 0 mm
02:39 2.1 °C 0.1 °C 998.9 hPa WNW 6.4 km/h 9.7 km/h 87% 0 mm
02:44 2 °C 0.1 °C 998.9 hPa WSW 4.8 km/h 9.7 km/h 87% 0.25 mm
02:49 1.9 °C 0.2 °C 998.9 hPa West 3.2 km/h 6.4 km/h 88% 0.25 mm
02:54 1.9 °C 0.1 °C 998.9 hPa West 4.8 km/h 11.3 km/h 88% 0.25 mm
02:59 1.8 °C 0.1 °C 998.9 hPa SW 8 km/h 14.5 km/h 88% 0.25 mm
03:04 1.8 °C 0.1 °C 998.9 hPa SSW 3.2 km/h 11.3 km/h 88% 0.25 mm
03:09 1.8 °C 0.1 °C 998.9 hPa SW 3.2 km/h 8 km/h 88% 0.25 mm
03:14 1.8 °C 0 °C 998.9 hPa SW 3.2 km/h 9.7 km/h 88% 0.25 mm
03:19 1.8 °C 0 °C 998.9 hPa WSW 3.2 km/h 9.7 km/h 88% 0.25 mm
03:24 1.7 °C -0.1 °C 998.5 hPa SW 3.2 km/h 9.7 km/h 88% 0.25 mm
03:29 1.7 °C -0.1 °C 998.5 hPa SW 3.2 km/h 8 km/h 88% 0.25 mm
03:34 1.7 °C -0.1 °C 998.5 hPa SW 3.2 km/h 9.7 km/h 88% 0.25 mm
03:39 1.7 °C -0.1 °C 998.5 hPa WSW 4.8 km/h 8 km/h 88% 0.25 mm
03:44 1.7 °C -0.1 °C 998.5 hPa SW 3.2 km/h 9.7 km/h 88% 0 mm
03:49 1.6 °C -0.2 °C 998.2 hPa SW 3.2 km/h 9.7 km/h 88% 0 mm
03:54 1.6 °C -0.1 °C 998.2 hPa SW 3.2 km/h 9.7 km/h 89% 0 mm
03:59 1.6 °C -0.2 °C 998.2 hPa SW 3.2 km/h 9.7 km/h 88% 0 mm
04:04 1.6 °C -0.1 °C 998.2 hPa SSW 1.6 km/h 4.8 km/h 89% 0 mm
04:09 1.6 °C -0.1 °C 998.2 hPa SSW 3.2 km/h 6.4 km/h 89% 0 mm
04:14 1.5 °C -0.1 °C 998.2 hPa SW 1.6 km/h 4.8 km/h 89% 0 mm
04:19 1.4 °C -0.2 °C 998.2 hPa SW 1.6 km/h 6.4 km/h 89% 0 mm
04:24 1.4 °C -0.2 °C 998.2 hPa SW 4.8 km/h 9.7 km/h 89% 0 mm
04:29 1.3 °C -0.3 °C 998.2 hPa SW 4.8 km/h 9.7 km/h 89% 0 mm
04:34 1.3 °C -0.3 °C 998.2 hPa SW 4.8 km/h 9.7 km/h 89% 0 mm
04:39 1.2 °C -0.4 °C 998.2 hPa SW 6.4 km/h 16.1 km/h 89% 0 mm
04:44 1.2 °C -0.4 °C 998.2 hPa SW 6.4 km/h 12.9 km/h 89% 0 mm
04:49 1.2 °C -0.4 °C 998.2 hPa SW 6.4 km/h 8 km/h 89% 0 mm
04:54 1.1 °C -0.6 °C 998.2 hPa SW 4.8 km/h 11.3 km/h 89% 0 mm
04:59 1 °C -0.4 °C 998.2 hPa SW 6.4 km/h 11.3 km/h 90% 0 mm
05:04 0.9 °C -0.5 °C 998.2 hPa WSW 8 km/h 14.5 km/h 90% 0.25 mm
05:09 0.9 °C -0.6 °C 998.2 hPa SW 8 km/h 14.5 km/h 90% 0.25 mm
05:14 0.8 °C -0.7 °C 998.2 hPa SW 4.8 km/h 11.3 km/h 90% 0.25 mm
05:19 0.7 °C -0.7 °C 998.2 hPa SW 1.6 km/h 11.3 km/h 90% 0.25 mm
05:24 0.7 °C -0.8 °C 998.2 hPa SW 6.4 km/h 14.5 km/h 90% 0.25 mm
05:29 0.6 °C -0.7 °C 998.2 hPa SSW 6.4 km/h 14.5 km/h 91% 0.25 mm
05:34 0.6 °C -0.7 °C 998.2 hPa SSW 6.4 km/h 11.3 km/h 91% 0.25 mm
05:39 0.6 °C -0.7 °C 998.2 hPa South 4.8 km/h 12.9 km/h 91% 0.25 mm
05:44 0.5 °C -0.8 °C 998.2 hPa SW 4.8 km/h 11.3 km/h 91% 0.25 mm
05:49 0.4 °C -0.7 °C 998.2 hPa SW 6.4 km/h 9.7 km/h 92% 0.25 mm
05:54 0.4 °C -0.7 °C 998.2 hPa SW 6.4 km/h 11.3 km/h 92% 0.25 mm
05:59 0.4 °C -0.7 °C 998.2 hPa SW 6.4 km/h 11.3 km/h 92% 0.25 mm
06:04 0.5 °C -0.7 °C 998.2 hPa SW 4.8 km/h 11.3 km/h 92% 0 mm
06:09 0.4 °C -0.7 °C 998.2 hPa WSW 6.4 km/h 12.9 km/h 92% 0 mm
06:14 0.4 °C -0.7 °C 998.2 hPa SW 6.4 km/h 12.9 km/h 92% 0 mm
06:19 0.5 °C -0.7 °C 998.2 hPa WSW 6.4 km/h 12.9 km/h 92% 0 mm
06:24 0.5 °C -0.7 °C 998.2 hPa Calm   8 km/h 92% 0 mm
06:34 0.4 °C -0.7 °C 998.2 hPa West 3.2 km/h 8 km/h 92% 0 mm
06:39 0.4 °C -0.7 °C 998.2 hPa West 4.8 km/h 8 km/h 92% 0 mm
06:44 0.4 °C -0.7 °C 998.2 hPa West 4.8 km/h 8 km/h 92% 0 mm
06:49 0.4 °C -0.7 °C 998.2 hPa West 6.4 km/h 9.7 km/h 92% 0 mm
06:54 0.4 °C -0.7 °C 998.2 hPa West 8 km/h 9.7 km/h 92% 0 mm
06:59 0.5 °C -0.8 °C 998.2 hPa NW 3.2 km/h 11.3 km/h 91% 0 mm
07:04 0.4 °C -0.8 °C 998.2 hPa WNW 4.8 km/h 11.3 km/h 91% 0 mm
07:09 0.4 °C -0.8 °C 998.2 hPa NW 4.8 km/h 11.3 km/h 91% 0 mm
07:14 0.4 °C -1 °C 998.2 hPa NW 4.8 km/h 11.3 km/h 90% 0 mm
07:19 0.4 °C -1 °C 998.2 hPa NW 4.8 km/h 9.7 km/h 90% 0 mm
07:24 0.4 °C -1.2 °C 998.2 hPa NW 4.8 km/h 14.5 km/h 89% 0 mm
07:29 0.4 °C -1.4 °C 998.2 hPa NNW 3.2 km/h 12.9 km/h 88% 0 mm
07:34 0.4 °C -1.3 °C 998.2 hPa NW 6.4 km/h 12.9 km/h 88% 0 mm
07:39 0.4 °C -1.4 °C 998.2 hPa WNW 6.4 km/h 16.1 km/h 87% 0 mm
07:44 0.4 °C -1.5 °C 998.2 hPa NW 9.7 km/h 14.5 km/h 87% 0 mm
07:49 0.3 °C -1.6 °C 998.5 hPa NNW 6.4 km/h 12.9 km/h 87% 0 mm
07:54 0.2 °C -1.6 °C 998.5 hPa NNW 6.4 km/h 12.9 km/h 88% 0 mm
07:59 0 °C -1.8 °C 998.5 hPa North 9.7 km/h 16.1 km/h 88% 0 mm
08:04 -0.2 °C -1.8 °C 998.5 hPa NNW 3.2 km/h 17.7 km/h 89% 0 mm
08:09 -0.2 °C -1.8 °C 998.5 hPa NW 8 km/h 17.7 km/h 89% 0 mm
08:14 -0.2 °C -1.7 °C 998.9 hPa NW 6.4 km/h 14.5 km/h 90% 0 mm
08:19 -0.2 °C -1.7 °C 998.9 hPa NW 6.4 km/h 17.7 km/h 90% 0 mm
08:24 -0.2 °C -1.7 °C 998.9 hPa WNW 6.4 km/h 17.7 km/h 90% 0 mm
08:29 -0.2 °C -1.7 °C 998.9 hPa NNW 9.7 km/h 12.9 km/h 90% 0 mm
08:34 -0.3 °C -1.8 °C 999.2 hPa WNW 6.4 km/h 16.1 km/h 90% 0 mm
08:39 -0.3 °C -1.8 °C 999.2 hPa NW 6.4 km/h 16.1 km/h 90% 0 mm
08:44 -0.4 °C -1.8 °C 999.2 hPa WNW 9.7 km/h 16.1 km/h 90% 0 mm
08:49 -0.5 °C -2.1 °C 999.2 hPa WNW 8 km/h 20.9 km/h 89% 0 mm
08:54 -0.6 °C -2.2 °C 999.2 hPa NW 8 km/h 16.1 km/h 89% 0 mm
08:59 -0.7 °C -2.3 °C 999.2 hPa West 6.4 km/h 14.5 km/h 89% 0 mm
09:04 -0.7 °C -2.3 °C 999.2 hPa WNW 8 km/h 14.5 km/h 89% 0 mm
09:09 -0.7 °C -2.3 °C 999.2 hPa NNW 9.7 km/h 17.7 km/h 89% 0 mm
09:14 -0.7 °C -2.4 °C 999.2 hPa NW 8 km/h 19.3 km/h 88% 0 mm
09:19 -0.7 °C -2.4 °C 999.2 hPa NW 6.4 km/h 19.3 km/h 88% 0 mm
09:24 -0.6 °C -2.4 °C 999.2 hPa NW 8 km/h 17.7 km/h 87% 0 mm
09:29 -0.4 °C -2.4 °C 999.2 hPa WNW 6.4 km/h 17.7 km/h 86% 0 mm
09:34 -0.3 °C -2.5 °C 999.5 hPa NW 6.4 km/h 12.9 km/h 85% 0 mm
09:39 -0.2 °C -2.6 °C 999.5 hPa WNW 6.4 km/h 14.5 km/h 84% 0 mm
09:44 -0.2 °C -2.6 °C 999.5 hPa WNW 8 km/h 14.5 km/h 84% 0 mm
09:49 -0.2 °C -2.6 °C 999.5 hPa WNW 8 km/h 14.5 km/h 84% 0 mm
09:54 -0.1 °C -2.5 °C 999.5 hPa West 4.8 km/h 11.3 km/h 84% 0 mm
09:59 -0.1 °C -2.3 °C 999.5 hPa NW 4.8 km/h 12.9 km/h 85% 0.25 mm
10:04 0 °C -2.2 °C 999.5 hPa West 8 km/h 16.1 km/h 85% 0.25 mm
10:09 0.1 °C -2 °C 999.5 hPa West 6.4 km/h 16.1 km/h 86% 0.25 mm
10:14 0.1 °C -2.1 °C 999.5 hPa WSW 8 km/h 16.1 km/h 85% 0.25 mm
10:19 0.2 °C -1.8 °C 999.5 hPa SW 8 km/h 11.3 km/h 86% 0.25 mm
10:24 0.2 °C -1.9 °C 999.5 hPa WSW 8 km/h 12.9 km/h 86% 0.25 mm
10:29 0.2 °C -1.7 °C 999.5 hPa WSW 8 km/h 14.5 km/h 87% 0.25 mm
10:34 0.3 °C -1.6 °C 999.5 hPa WSW 8 km/h 16.1 km/h 87% 0.25 mm
10:39 0.4 °C -1.4 °C 999.5 hPa WSW 8 km/h 17.7 km/h 87% 0.25 mm
10:44 0.6 °C -1.5 °C 999.5 hPa WSW 4.8 km/h 20.9 km/h 86% 0.25 mm
10:49 0.6 °C -1.8 °C 999.5 hPa NW 4.8 km/h 22.5 km/h 84% 0.25 mm
10:54 0.7 °C -1.9 °C 999.5 hPa West 8 km/h 16.1 km/h 83% 0.25 mm
10:59 0.8 °C -1.8 °C 999.5 hPa West 9.7 km/h 24.1 km/h 83% 0 mm
11:04 0.7 °C -2.2 °C 999.5 hPa WSW 11.3 km/h 24.1 km/h 81% 0 mm
11:09 0.8 °C -2.1 °C 999.9 hPa WNW 8 km/h 16.1 km/h 81% 0 mm
11:14 0.7 °C -2.5 °C 999.5 hPa West 6.4 km/h 16.1 km/h 79% 0 mm
11:19 0.8 °C -2.4 °C 999.9 hPa West 6.4 km/h 20.9 km/h 79% 0 mm
11:24 1 °C -2.2 °C 999.9 hPa West 16.1 km/h 19.3 km/h 79% 0 mm
11:29 1.4 °C -1.8 °C 999.9 hPa West 8 km/h 19.3 km/h 79% 0 mm
11:34 1.4 °C -2.2 °C 999.9 hPa WSW 11.3 km/h 22.5 km/h 77% 0 mm
11:39 1.4 °C -2.2 °C 999.9 hPa West 11.3 km/h 22.5 km/h 77% 0 mm
11:44 0.9 °C -3 °C 999.9 hPa WNW 4.8 km/h 17.7 km/h 75% 0 mm
11:49 1.1 °C -2.7 °C 999.5 hPa West 9.7 km/h 17.7 km/h 76% 0 mm
11:54 1.4 °C -2.6 °C 999.5 hPa West 9.7 km/h 22.5 km/h 75% 0 mm
11:59 1.3 °C -2.3 °C 999.9 hPa SSW 9.7 km/h 19.3 km/h 77% 0 mm
12:04 1.9 °C -1.6 °C 999.5 hPa WSW 12.9 km/h 24.1 km/h 78% 0 mm
12:09 2.3 °C -1.4 °C 999.5 hPa SW 12.9 km/h 24.1 km/h 76% 0 mm
12:14 2.4 °C -1.6 °C 999.5 hPa WSW 12.9 km/h 25.7 km/h 75% 0 mm
12:19 2.2 °C -1.6 °C 999.5 hPa WSW 12.9 km/h 24.1 km/h 76% 0 mm
12:24 2.2 °C -1.4 °C 999.5 hPa SW 20.9 km/h 22.5 km/h 77% 0 mm
12:29 1.8 °C -1.8 °C 999.2 hPa WSW 9.7 km/h 27.4 km/h 77% 0 mm
12:34 1.7 °C -1.7 °C 999.2 hPa WSW 12.9 km/h 27.4 km/h 78% 0 mm
12:39 1.9 °C -1.7 °C 999.2 hPa WSW 12.9 km/h 20.9 km/h 77% 0 mm
12:44 1.6 °C -2 °C 999.2 hPa SW 11.3 km/h 25.7 km/h 77% 0 mm
12:49 1.4 °C -2 °C 999.2 hPa SW 19.3 km/h 22.5 km/h 78% 0 mm
12:54 1.1 °C -2.2 °C 999.2 hPa SW 12.9 km/h 22.5 km/h 79% 0 mm
12:59 0.8 °C -2.3 °C 999.2 hPa WSW 12.9 km/h 20.9 km/h 80% 0 mm
13:04 0.6 °C -2.2 °C 999.2 hPa WSW 17.7 km/h 17.7 km/h 82% 0 mm
13:09 0.4 °C -2.3 °C 999.2 hPa WSW 11.3 km/h 22.5 km/h 82% 0 mm
13:14 0.2 °C -2.3 °C 999.2 hPa WSW 12.9 km/h 25.7 km/h 83% 0 mm
13:19 0.1 °C -2.3 °C 999.2 hPa WSW 12.9 km/h 25.7 km/h 84% 0 mm
13:24 0.1 °C -2.1 °C 999.2 hPa WSW 8 km/h 19.3 km/h 85% 0 mm
13:29 0.1 °C -2.1 °C 999.2 hPa WSW 11.3 km/h 22.5 km/h 85% 0 mm
13:34 0.2 °C -2 °C 999.2 hPa West 3.2 km/h 19.3 km/h 85% 0 mm
13:39 0.2 °C -1.9 °C 999.2 hPa WNW 8 km/h 12.9 km/h 86% 0 mm
13:44 0.1 °C -1.8 °C 999.2 hPa WSW 8 km/h 24.1 km/h 87% 0 mm
13:49 -0.1 °C -1.9 °C 999.2 hPa West 9.7 km/h 24.1 km/h 87% 0 mm
13:54 -0.1 °C -1.9 °C 999.2 hPa WSW 9.7 km/h 24.1 km/h 87% 0 mm
13:59 0 °C -1.8 °C 999.2 hPa WSW 9.7 km/h 24.1 km/h 88% 0 mm
14:04 0.1 °C -1.7 °C 999.2 hPa WSW 8 km/h 16.1 km/h 88% 0.25 mm
14:09 0.1 °C -1.7 °C 999.2 hPa WSW 9.7 km/h 19.3 km/h 88% 0.25 mm
14:14 0.2 °C -1.6 °C 999.2 hPa WSW 8 km/h 19.3 km/h 88% 0.25 mm
14:19 0.2 °C -1.6 °C 999.2 hPa SSW 4.8 km/h 16.1 km/h 88% 0.25 mm
14:24 0.2 °C -1.6 °C 999.2 hPa West 8 km/h 20.9 km/h 88% 0.25 mm
14:29 0.1 °C -1.7 °C 999.5 hPa West 4.8 km/h 20.9 km/h 88% 0.25 mm
14:34 0.1 °C -1.7 °C 999.9 hPa NNW 8 km/h 19.3 km/h 88% 0.25 mm
14:39 -0.4 °C -2.1 °C 999.9 hPa NW 8 km/h 19.3 km/h 88% 0.25 mm
14:44 -0.6 °C -2.2 °C 999.9 hPa WNW 6.4 km/h 14.5 km/h 89% 0.25 mm
14:49 -0.5 °C -1.9 °C 999.9 hPa WNW 8 km/h 11.3 km/h 90% 0.25 mm
14:54 -0.4 °C -1.8 °C 999.9 hPa NW 4.8 km/h 11.3 km/h 90% 0.25 mm
14:59 -0.3 °C -1.9 °C 999.9 hPa NW 4.8 km/h 9.7 km/h 89% 0.25 mm
15:04 -0.2 °C -1.8 °C 999.9 hPa WNW 4.8 km/h 12.9 km/h 89% 0 mm
15:09 -0.2 °C -1.8 °C 999.9 hPa WNW 4.8 km/h 12.9 km/h 89% 0 mm
15:14 -0.2 °C -1.8 °C 1000.2 hPa NW 4.8 km/h 9.7 km/h 89% 0 mm
15:19 -0.2 °C -1.8 °C 1000.2 hPa WNW 6.4 km/h 14.5 km/h 89% 0 mm
15:24 -0.3 °C -1.9 °C 1000.2 hPa NW 4.8 km/h 19.3 km/h 89% 0 mm
15:29 -0.3 °C -1.8 °C 1000.2 hPa WNW 8 km/h 19.3 km/h 90% 0 mm
15:34 -0.4 °C -1.9 °C 1000.2 hPa NW 4.8 km/h 22.5 km/h 90% 0 mm
15:39 -0.4 °C -1.9 °C 1000.6 hPa WNW 6.4 km/h 16.1 km/h 90% 0 mm
15:44 -0.5 °C -1.9 °C 1000.6 hPa NW 4.8 km/h 16.1 km/h 90% 0 mm
15:49 -0.7 °C -2.1 °C 1000.6 hPa NNW 11.3 km/h 22.5 km/h 90% 0 mm
15:54 -0.9 °C -2.7 °C 1000.6 hPa WNW 6.4 km/h 30.6 km/h 88% 0 mm
15:59 -1.1 °C -2.9 °C 1000.9 hPa NW 12.9 km/h 30.6 km/h 87% 0 mm
16:04 -1 °C -2.9 °C 1000.9 hPa NW 9.7 km/h 24.1 km/h 87% 0 mm
16:09 -1.1 °C -2.9 °C 1000.9 hPa WNW 19.3 km/h 22.5 km/h 87% 0 mm
16:14 -1.2 °C -3.1 °C 1000.9 hPa WNW 11.3 km/h 25.7 km/h 87% 0 mm
16:19 -1.2 °C -3.3 °C 1000.9 hPa WNW 14.5 km/h 25.7 km/h 86% 0 mm
16:24 -1.2 °C -3.2 °C 1001.2 hPa WNW 12.9 km/h 20.9 km/h 86% 0 mm
16:29 -1.2 °C -3.4 °C 1001.2 hPa West 16.1 km/h 19.3 km/h 85% 0 mm
16:34 -1.2 °C -3.4 °C 1001.2 hPa WNW 9.7 km/h 25.7 km/h 85% 0 mm
16:39 -1.4 °C -3.9 °C 1001.2 hPa West 17.7 km/h 29 km/h 83% 0 mm
16:44 -1.4 °C -4.1 °C 1001.2 hPa West 6.4 km/h 30.6 km/h 82% 0 mm
16:49 -1.3 °C -4.2 °C 1001.6 hPa NW 9.7 km/h 19.3 km/h 81% 0 mm
16:54 -1.3 °C -4.5 °C 1001.6 hPa WNW 11.3 km/h 24.1 km/h 79% 0 mm
16:59 -1.3 °C -4.7 °C 1001.6 hPa NW 8 km/h 29 km/h 78% 0 mm
17:04 -1.5 °C -4.8 °C 1001.6 hPa WNW 12.9 km/h 29 km/h 78% 0 mm
17:09 -1.5 °C -4.8 °C 1001.6 hPa WNW 11.3 km/h 27.4 km/h 78% 0 mm
17:14 -1.5 °C -5 °C 1001.9 hPa North 9.7 km/h 24.1 km/h 77% 0 mm
17:19 -1.6 °C -5.1 °C 1001.9 hPa WNW 12.9 km/h 24.1 km/h 77% 0 mm
17:24 -1.6 °C -5.3 °C 1001.9 hPa NW 12.9 km/h 30.6 km/h 76% 0 mm
17:29 -1.7 °C -5.6 °C 1002.3 hPa WNW 14.5 km/h 33.8 km/h 75% 0 mm
17:34 -1.8 °C -5.7 °C 1002.3 hPa WNW 14.5 km/h 33.8 km/h 75% 0 mm
17:39 -1.9 °C -5.8 °C 1002.6 hPa WNW 8 km/h 30.6 km/h 75% 0 mm
17:44 -2.2 °C -6.2 °C 1002.6 hPa WNW 17.7 km/h 25.7 km/h 74% 0 mm
17:49 -2.3 °C -6.1 °C 1002.6 hPa WNW 14.5 km/h 27.4 km/h 75% 0 mm
17:54 -2.3 °C -6.2 °C 1002.6 hPa WSW 17.7 km/h 24.1 km/h 75% 0 mm
17:59 -2.3 °C -6.2 °C 1002.6 hPa WNW 19.3 km/h 29 km/h 75% 0 mm
18:04 -2.3 °C -6.2 °C 1002.9 hPa NW 17.7 km/h 24.1 km/h 75% 0 mm
18:09 -2.3 °C -6.3 °C 1002.9 hPa WNW 11.3 km/h 24.1 km/h 74% 0 mm
18:14 -2.3 °C -6.3 °C 1002.9 hPa WNW 12.9 km/h 27.4 km/h 74% 0 mm
18:19 -2.3 °C -6.3 °C 1002.9 hPa WNW 12.9 km/h 22.5 km/h 74% 0 mm
18:24 -2.3 °C -6.3 °C 1002.9 hPa WNW 11.3 km/h 27.4 km/h 74% 0 mm
18:29 -2.3 °C -6.3 °C 1002.9 hPa SW 3.2 km/h 19.3 km/h 74% 0 mm
18:34 -2.3 °C -6.3 °C 1003.3 hPa WNW 17.7 km/h 27.4 km/h 74% 0 mm
18:39 -2.3 °C -6.2 °C 1003.3 hPa WSW 14.5 km/h 27.4 km/h 75% 0 mm
18:44 -2.4 °C -6.1 °C 1003.3 hPa West 12.9 km/h 27.4 km/h 76% 0 mm
18:49 -2.4 °C -6.1 °C 1003.3 hPa WNW 11.3 km/h 25.7 km/h 76% 0 mm
18:54 -2.4 °C -6.1 °C 1003.6 hPa West 16.1 km/h 20.9 km/h 76% 0 mm
18:59 -2.4 °C -5.9 °C 1003.6 hPa NW 9.7 km/h 19.3 km/h 77% 0 mm
19:04 -2.6 °C -6.2 °C 1003.6 hPa WNW 16.1 km/h 29 km/h 76% 0 mm
19:09 -2.7 °C -6.3 °C 1003.6 hPa West 19.3 km/h 24.1 km/h 76% 0 mm
19:14 -2.8 °C -6.1 °C 1003.9 hPa WNW 12.9 km/h 25.7 km/h 78% 0 mm
19:19 -3 °C -6.1 °C 1003.9 hPa WNW 17.7 km/h 27.4 km/h 79% 0 mm
19:24 -3.1 °C -6.2 °C 1003.9 hPa NW 9.7 km/h 25.7 km/h 79% 0 mm
19:29 -3.1 °C -6.1 °C 1003.9 hPa West 9.7 km/h 17.7 km/h 80% 0 mm
19:34 -3.1 °C -6.1 °C 1003.9 hPa WNW 11.3 km/h 20.9 km/h 80% 0 mm
19:39 -3.2 °C -6.1 °C 1003.9 hPa WNW 6.4 km/h 27.4 km/h 80% 0 mm
19:44 -3.3 °C -6.1 °C 1004.3 hPa WNW 12.9 km/h 27.4 km/h 81% 0 mm
19:49 -3.3 °C -5.9 °C 1004.3 hPa WNW 3.2 km/h 19.3 km/h 82% 0 mm
19:54 -3.4 °C -5.9 °C 1004.3 hPa West 16.1 km/h 22.5 km/h 83% 0 mm
19:59 -3.6 °C -6 °C 1004.3 hPa NNW 25.7 km/h 25.7 km/h 83% 0 mm
20:04 -3.7 °C -6 °C 1004.3 hPa NW 6.4 km/h 25.7 km/h 84% 0 mm
20:09 -3.7 °C -6 °C 1004.3 hPa NNW 11.3 km/h 19.3 km/h 84% 0 mm
20:14 -3.7 °C -6.1 °C 1004.3 hPa West 12.9 km/h 20.9 km/h 84% 0 mm
20:19 -3.8 °C -6.1 °C 1004.3 hPa NW 9.7 km/h 22.5 km/h 84% 0 mm
20:24 -3.8 °C -6.1 °C 1004.3 hPa West 4.8 km/h 14.5 km/h 84% 0 mm
20:29 -3.8 °C -6.2 °C 1004.6 hPa WSW 6.4 km/h 16.1 km/h 84% 0 mm
20:34 -3.8 °C -6 °C 1004.6 hPa NNW 19.3 km/h 22.5 km/h 85% 0 mm
20:39 -3.9 °C -6.2 °C 1004.6 hPa West 6.4 km/h 19.3 km/h 84% 0 mm
20:44 -3.9 °C -6.4 °C 1004.6 hPa WNW 11.3 km/h 19.3 km/h 83% 0 mm
20:49 -3.9 °C -6.6 °C 1004.6 hPa WNW 9.7 km/h 19.3 km/h 82% 0 mm
20:54 -3.9 °C -6.7 °C 1004.6 hPa WNW 9.7 km/h 19.3 km/h 81% 0 mm
20:59 -3.9 °C -6.7 °C 1004.6 hPa NW 9.7 km/h 19.3 km/h 81% 0 mm
21:04 -4 °C -6.9 °C 1004.6 hPa WNW 8 km/h 20.9 km/h 80% 0 mm
21:09 -4.1 °C -6.8 °C 1004.6 hPa NW 9.7 km/h 20.9 km/h 81% 0 mm
21:14 -4.2 °C -6.8 °C 1004.6 hPa West 11.3 km/h 20.9 km/h 82% 0 mm
21:19 -4.3 °C -6.9 °C 1004.6 hPa WNW 9.7 km/h 20.9 km/h 82% 0 mm
21:24 -4.3 °C -6.9 °C 1004.6 hPa WNW 9.7 km/h 20.9 km/h 82% 0 mm
21:29 -4.3 °C -7.1 °C 1005 hPa West 6.4 km/h 24.1 km/h 81% 0 mm
21:34 -4.4 °C -7.2 °C 1005 hPa WNW 3.2 km/h 24.1 km/h 81% 0 mm
21:39 -4.4 °C -7.2 °C 1005 hPa WNW 14.5 km/h 22.5 km/h 81% 0 mm
21:44 -4.4 °C -7.1 °C 1005 hPa WNW 9.7 km/h 22.5 km/h 82% 0 mm
21:49 -4.4 °C -7.1 °C 1005 hPa WNW 9.7 km/h 17.7 km/h 82% 0 mm
21:54 -4.4 °C -7.1 °C 1005 hPa WNW 9.7 km/h 19.3 km/h 82% 0 mm
21:59 -4.5 °C -7.1 °C 1005 hPa WNW 9.7 km/h 19.3 km/h 82% 0 mm
22:04 -4.6 °C -7 °C 1005 hPa WNW 6.4 km/h 16.1 km/h 83% 0 mm
22:09 -4.7 °C -7.1 °C 1005 hPa NW 6.4 km/h 24.1 km/h 83% 0 mm
22:14 -4.7 °C -7.1 °C 1005 hPa West 6.4 km/h 16.1 km/h 83% 0 mm
22:19 -4.7 °C -7.2 °C 1005 hPa WNW 14.5 km/h 14.5 km/h 83% 0 mm
22:24 -4.7 °C -7.2 °C 1005 hPa NW 8 km/h 14.5 km/h 83% 0 mm
22:29 -4.7 °C -7.1 °C 1005 hPa NW 4.8 km/h 20.9 km/h 83% 0 mm
22:34 -4.7 °C -7.1 °C 1005 hPa NW 3.2 km/h 17.7 km/h 83% 0 mm
22:39 -4.6 °C -7.1 °C 1005 hPa West 12.9 km/h 17.7 km/h 83% 0 mm
22:44 -4.6 °C -7.1 °C 1005 hPa WNW 9.7 km/h 19.3 km/h 83% 0 mm
22:49 -4.7 °C -7.1 °C 1005 hPa WNW 8 km/h 19.3 km/h 83% 0 mm
22:54 -4.7 °C -6.9 °C 1005 hPa WNW 8 km/h 19.3 km/h 84% 0 mm
22:59 -4.7 °C -7 °C 1005 hPa WNW 8 km/h 19.3 km/h 84% 0 mm
23:04 -4.8 °C -6.9 °C 1005 hPa WNW 8 km/h 14.5 km/h 85% 0 mm
23:09 -4.8 °C -6.9 °C 1005 hPa NW 4.8 km/h 14.5 km/h 85% 0 mm
23:14 -4.8 °C -6.9 °C 1005 hPa West 14.5 km/h 14.5 km/h 85% 0 mm
23:19 -4.8 °C -6.9 °C 1005 hPa WNW 8 km/h 16.1 km/h 85% 0 mm
23:24 -4.8 °C -6.8 °C 1005 hPa West 11.3 km/h 16.1 km/h 86% 0 mm
23:29 -4.8 °C -6.8 °C 1005 hPa West 4.8 km/h 14.5 km/h 86% 0 mm
23:34 -4.8 °C -6.8 °C 1005 hPa West 4.8 km/h 12.9 km/h 86% 0 mm
23:39 -4.8 °C -6.8 °C 1005 hPa NW 4.8 km/h 16.1 km/h 86% 0 mm
23:44 -4.8 °C -6.8 °C 1005 hPa NW 9.7 km/h 16.1 km/h 86% 0 mm
23:49 -4.8 °C -6.9 °C 1005 hPa WNW 6.4 km/h 17.7 km/h 85% 0 mm
23:54 -4.8 °C -6.9 °C 1005 hPa WNW 11.3 km/h 17.7 km/h 85% 0 mm
23:59 -4.7 °C -6.8 °C 1005 hPa WNW 8 km/h 17.7 km/h 85% 0 mm
Buffalo, New York, USA
Compliments of Weather Underground - 2.5 mb